Search for airport 
image banner adimage banner ad
image banner ad

DAOI - Chlef

Located in Chlef, Algeria

ICAO - DAOI, IATA - CFK

Data provided by Airmate  

General information

Coordinates: N36°13'1" E1°20'24"
Elevation is 501 feet MSL.
 
View others Airports in Chlef Province

Operational data

Open for public use
Current time UTC:
Current local time:
Weather
METAR: DAOI 290200Z 06007KT CAVOK 20/08 Q1016
TAF: TAF DAOI 282300Z 2900/2924 VRB02KT CAVOK BECMG 2912/2915 34012KT
View NOTAMs / SUP AIP / TFR affecting this airport [VIEW]
Communications frequencies: [VIEW]

Runways:

RWY identifierQFULength (ft)Width (ft)SurfaceLDA (ft)
0877°9186148
26257°9186148
0769°541398ASP
25249°541398

Airport contact information

Address: Chlef Algeria

Satellite view of DAOI